Previsão horária em Caudebec-en-Caux

Hoje, 25 Julho, Domingo

Tempo Temperatura Precipitação Vento Pressão Humidade
00:00 +17°C° 0 mm 3 m/s 747 mmHg 97%
01:00 +17°C° 0.3 mm 3 m/s 747 mmHg 97%
02:00 +16°C° 0.3 mm 3 m/s 746 mmHg 97%
03:00 +16°C° 0.3 mm 3 m/s 746 mmHg 97%
04:00 +16°C° 0.1 mm 2 m/s 746 mmHg 96%
05:00 +16°C° 0.1 mm 2 m/s 746 mmHg 95%
06:00 +16°C° 0.1 mm 2 m/s 746 mmHg 95%
07:00 +17°C° 0.2 mm 2 m/s 746 mmHg 93%
08:00 +17°C° 0.2 mm 2 m/s 747 mmHg 91%
09:00 +18°C° 0.2 mm 2 m/s 747 mmHg 89%
10:00 +19°C° 0.6 mm 2 m/s 747 mmHg 86%
11:00 +19°C° 0.6 mm 2 m/s 747 mmHg 83%
12:00 +20°C° 0.6 mm 2 m/s 747 mmHg 80%
13:00 +20°C° 0.8 mm 2 m/s 747 mmHg 80%
14:00 +20°C° 0.8 mm 2 m/s 747 mmHg 80%
15:00 +20°C° 0.8 mm 3 m/s 747 mmHg 80%
16:00 +20°C° 0.4 mm 3 m/s 747 mmHg 82%
17:00 +19°C° 0.4 mm 3 m/s 747 mmHg 84%
18:00 +19°C° 0.4 mm 3 m/s 748 mmHg 86%
19:00 +18°C° 0 mm 3 m/s 748 mmHg 89%
20:00 +17°C° 0 mm 3 m/s 748 mmHg 93%
21:00 +16°C° 0 mm 3 m/s 749 mmHg 97%
22:00 +16°C° 0 mm 3 m/s 749 mmHg 97%
23:00 +16°C° 0 mm 3 m/s 749 mmHg 97%

Amanhã, 26 Julho, Segunda-feira

Tempo Temperatura Precipitação Vento Pressão Humidade
00:00 +15°C° 0 mm 4 m/s 749 mmHg 98%
01:00 +15°C° 0 mm 4 m/s 749 mmHg 97%
02:00 +15°C° 0 mm 4 m/s 749 mmHg 97%
03:00 +15°C° 0 mm 4 m/s 749 mmHg 97%
04:00 +15°C° 0 mm 4 m/s 749 mmHg 96%
05:00 +17°C° 0 mm 4 m/s 750 mmHg 95%
06:00 +17°C° 0 mm 4 m/s 750 mmHg 94%
07:00 +18°C° 0 mm 4 m/s 750 mmHg 89%
08:00 +19°C° 0 mm 4 m/s 750 mmHg 84%
09:00 +20°C° 0 mm 5 m/s 751 mmHg 79%
10:00 +21°C° 0.3 mm 5 m/s 751 mmHg 75%
11:00 +22°C° 0.3 mm 5 m/s 751 mmHg 72%
12:00 +23°C° 0.3 mm 5 m/s 751 mmHg 68%
13:00 +23°C° 0.4 mm 4 m/s 751 mmHg 66%
14:00 +23°C° 0.4 mm 4 m/s 751 mmHg 64%
15:00 +23°C° 0.4 mm 4 m/s 751 mmHg 62%
16:00 +23°C° 0.1 mm 4 m/s 751 mmHg 64%
17:00 +22°C° 0.1 mm 3 m/s 751 mmHg 67%
18:00 +21°C° 0.1 mm 3 m/s 751 mmHg 69%
19:00 +19°C° 0 mm 3 m/s 751 mmHg 74%
20:00 +18°C° 0 mm 2 m/s 751 mmHg 79%
21:00 +16°C° 0 mm 2 m/s 751 mmHg 83%
22:00 +16°C° 0 mm 2 m/s 751 mmHg 84%
23:00 +16°C° 0 mm 2 m/s 751 mmHg 85%

Depois de amanhã, 27 Julho, Terça-feira

Tempo Temperatura Precipitação Vento Pressão Humidade
00:00 +16°C° 0 mm 2 m/s 751 mmHg 86%
01:00 +16°C° 0.1 mm 2 m/s 751 mmHg 87%
02:00 +16°C° 0.1 mm 3 m/s 751 mmHg 88%
03:00 +16°C° 0.1 mm 3 m/s 751 mmHg 89%
04:00 +16°C° 0.1 mm 3 m/s 751 mmHg 89%
05:00 +16°C° 0.1 mm 3 m/s 751 mmHg 89%
06:00 +17°C° 0.1 mm 2 m/s 751 mmHg 88%
07:00 +17°C° 0.1 mm 3 m/s 751 mmHg 84%
08:00 +18°C° 0.1 mm 3 m/s 751 mmHg 80%
09:00 +19°C° 0.1 mm 4 m/s 751 mmHg 76%
10:00 +20°C° 0.2 mm 4 m/s 751 mmHg 71%
11:00 +22°C° 0.2 mm 5 m/s 751 mmHg 65%
12:00 +23°C° 0.2 mm 6 m/s 751 mmHg 59%
13:00 +22°C° 0.6 mm 5 m/s 751 mmHg 62%
14:00 +22°C° 0.6 mm 5 m/s 751 mmHg 66%
15:00 +22°C° 0.6 mm 4 m/s 751 mmHg 69%
16:00 +21°C° 0.5 mm 4 m/s 750 mmHg 72%
17:00 +20°C° 0.5 mm 3 m/s 750 mmHg 75%
18:00 +19°C° 0.5 mm 3 m/s 750 mmHg 78%
19:00 +18°C° 0.1 mm 3 m/s 751 mmHg 82%
20:00 +17°C° 0.1 mm 2 m/s 751 mmHg 86%
21:00 +16°C° 0.1 mm 2 m/s 751 mmHg 90%
22:00 +15°C° 0 mm 2 m/s 751 mmHg 91%
23:00 +15°C° 0 mm 2 m/s 751 mmHg 92%

28 Julho, Quarta-feira

Tempo Temperatura Precipitação Vento Pressão Humidade
00:00 +14°C° 0 mm 2 m/s 751 mmHg 93%
01:00 +13°C° 0 mm 3 m/s 751 mmHg 94%
02:00 +13°C° 0 mm 3 m/s 751 mmHg 95%
03:00 +12°C° 0 mm 3 m/s 751 mmHg 95%
04:00 +13°C° 0 mm 3 m/s 751 mmHg 94%
05:00 +13°C° 0 mm 3 m/s 751 mmHg 94%
06:00 +13°C° 0 mm 3 m/s 751 mmHg 93%
07:00 +15°C° 0 mm 4 m/s 751 mmHg 84%
08:00 +18°C° 0 mm 4 m/s 751 mmHg 76%
09:00 +19°C° 0 mm 5 m/s 751 mmHg 67%
10:00 +20°C° 0.1 mm 5 m/s 751 mmHg 66%
11:00 +20°C° 0.1 mm 5 m/s 751 mmHg 65%
12:00 +21°C° 0.1 mm 5 m/s 750 mmHg 64%
13:00 +21°C° 0.2 mm 5 m/s 750 mmHg 64%
14:00 +21°C° 0.2 mm 5 m/s 750 mmHg 64%
15:00 +21°C° 0.2 mm 5 m/s 750 mmHg 64%
16:00 +20°C° 0.4 mm 5 m/s 750 mmHg 70%
17:00 +19°C° 0.4 mm 4 m/s 750 mmHg 76%
18:00 +19°C° 0.4 mm 4 m/s 750 mmHg 82%
19:00 +18°C° 0.1 mm 3 m/s 750 mmHg 84%
20:00 +16°C° 0.1 mm 3 m/s 750 mmHg 87%
21:00 +15°C° 0.1 mm 2 m/s 750 mmHg 89%
22:00 +14°C° 0 mm 3 m/s 750 mmHg 89%
23:00 +14°C° 0 mm 3 m/s 750 mmHg 89%

29 Julho, Quinta-feira

Tempo Temperatura Precipitação Vento Pressão Humidade
00:00 +14°C° 0 mm 3 m/s 750 mmHg 89%
01:00 +13°C° 0 mm 4 m/s 750 mmHg 91%
02:00 +13°C° 0 mm 4 m/s 750 mmHg 92%
03:00 +12°C° 0 mm 5 m/s 750 mmHg 94%
04:00 +12°C° 0 mm 5 m/s 750 mmHg 93%
05:00 +13°C° 0 mm 5 m/s 751 mmHg 93%
06:00 +13°C° 0 mm 5 m/s 751 mmHg 92%
07:00 +14°C° 0 mm 6 m/s 751 mmHg 84%
08:00 +16°C° 0 mm 6 m/s 752 mmHg 76%
09:00 +17°C° 0 mm 7 m/s 752 mmHg 67%
10:00 +19°C° 0 mm 6 m/s 752 mmHg 63%
11:00 +20°C° 0 mm 6 m/s 753 mmHg 59%
12:00 +20°C° 0 mm 5 m/s 753 mmHg 55%
13:00 +21°C° 0 mm 5 m/s 753 mmHg 53%
14:00 +21°C° 0 mm 5 m/s 753 mmHg 50%
15:00 +22°C° 0 mm 5 m/s 753 mmHg 48%
16:00 +21°C° 0 mm 4 m/s 753 mmHg 52%
17:00 +20°C° 0 mm 4 m/s 753 mmHg 56%
18:00 +19°C° 0 mm 3 m/s 752 mmHg 60%
19:00 +18°C° 0 mm 3 m/s 753 mmHg 65%
20:00 +16°C° 0 mm 2 m/s 753 mmHg 70%
21:00 +15°C° 0 mm 2 m/s 753 mmHg 76%
22:00 +14°C° 0 mm 2 m/s 753 mmHg 79%
23:00 +14°C° 0 mm 2 m/s 753 mmHg 82%

30 Julho, Sexta-feira

Tempo Temperatura Precipitação Vento Pressão Humidade
00:00 +13°C° 0 mm 2 m/s 753 mmHg 85%
01:00 +13°C° 0 mm 2 m/s 753 mmHg 86%
02:00 +12°C° 0 mm 3 m/s 753 mmHg 86%
03:00 +12°C° 0 mm 3 m/s 752 mmHg 87%
04:00 +13°C° 0 mm 3 m/s 752 mmHg 87%
05:00 +13°C° 0 mm 3 m/s 752 mmHg 88%
06:00 +13°C° 0 mm 3 m/s 753 mmHg 88%
07:00 +15°C° 0 mm 4 m/s 753 mmHg 80%
08:00 +17°C° 0 mm 5 m/s 753 mmHg 72%
09:00 +19°C° 0 mm 5 m/s 753 mmHg 65%
10:00 +20°C° 0 mm 6 m/s 753 mmHg 60%
11:00 +21°C° 0 mm 6 m/s 753 mmHg 55%
12:00 +22°C° 0 mm 6 m/s 753 mmHg 51%
13:00 +22°C° 0 mm 6 m/s 753 mmHg 51%
14:00 +22°C° 0 mm 6 m/s 753 mmHg 52%
15:00 +23°C° 0 mm 6 m/s 753 mmHg 53%
16:00 +22°C° 0 mm 6 m/s 753 mmHg 57%
17:00 +21°C° 0 mm 6 m/s 753 mmHg 61%
18:00 +20°C° 0 mm 5 m/s 753 mmHg 65%
19:00 +19°C° 0 mm 4 m/s 753 mmHg 72%
20:00 +17°C° 0 mm 3 m/s 753 mmHg 79%
21:00 +16°C° 0 mm 3 m/s 753 mmHg 86%
22:00 +14°C° 0 mm 3 m/s 754 mmHg 89%
23:00 +14°C° 0 mm 3 m/s 754 mmHg 92%
Mostrar mais

Necessitamos do seu Consentimento

A Meteoprog e os seus Fornecedores de Serviços podem armazenar e aceder a dados pessoais como cookies, identificadores do dispositivo ou outras tecnologias semelhantes existentes no seu dispositivo e processar estes dados para personalizar conteúdos e anúncios, assim como funcionalidades nas redes sociais e análise de tráfego.

  • Armazenar e/ou aceder a informações no seu dispositivo

    Os cookies, identificadores do dispositivo ou outras informações podem ser armazenados ou acedidos no seu dispositivo, para os fins acima indicados.

  • Anúncios e conteúdos personalizados, medição de anúncios e conteúdos, dados sobre o público-alvo e desenvolvimento de produtos

    Os anúncios e os conteúdos podem ser personalizados com base num perfil. Podem ser adicionados dados adicionais para uma maior personalização dos anúncios e dos conteúdos. A eficácia dos anúncios e dos conteúdos pode ser medida. Podem ser obtidas informações sobre o público que visualizou os anúncios e os conteúdos. Estes dados podem ser usados para desenvolver ou melhorar sistemas, softwares ou a experiência do utilizador.

Ao clicar em "Eu concordo”, permitirá o uso de cookies, identificadores do dispositivo e web beacons mencionados ou outras tecnologias semelhantes. As configurações do navegador do seu dispositivo podem ser alteradas.

Para certos fins, podem ser invocados interesses legítimos ao invés de consentimento. Pode ler mais informação sobre este assunto na nossa Política de Privacidade e Cookies.